| time (UTC) | temp F | wind direction | speed MPH | gust MPH | rain 1hr in | rain 24hr in | rain mn in | humidity % | barometer mb |
| 20260506231724 | 63 | 163 | 2.0 | 5.0 | 0.00 | 0.00 | 0.00 | 34 | 1016.3 |
| 20260506230730 | 63 | 211 | 1.0 | 8.0 | 0.00 | 0.00 | 0.00 | 35 | 1016.2 |
| 20260506225723 | 62 | 163 | 3.0 | 8.0 | 0.00 | 0.00 | 0.00 | 33 | 1016.3 |
| 20260506224733 | 62 | 224 | 3.0 | 5.0 | 0.00 | 0.00 | 0.00 | 31 | 1016.4 |
| 20260506223738 | 62 | 203 | 2.0 | 5.0 | 0.00 | 0.00 | 0.00 | 29 | 1016.6 |
| 20260506222722 | 62 | 194 | 2.0 | 7.0 | 0.00 | 0.00 | 0.00 | 28 | 1016.8 |
| 20260506221729 | 62 | 214 | 2.0 | 7.0 | 0.00 | 0.00 | 0.00 | 29 | 1016.9 |
| 20260506220738 | 62 | 207 | 4.0 | 8.0 | 0.00 | 0.00 | 0.00 | 29 | 1016.9 |
| 20260506215730 | 62 | 36 | 3.0 | 9.0 | 0.00 | 0.00 | 0.00 | 29 | 1017.0 |
| 20260506214738 | 61 | 256 | 4.0 | 8.0 | 0.00 | 0.00 | 0.00 | 33 | 1017.0 |
| 20260506213725 | 61 | 221 | 6.0 | 10.0 | 0.00 | 0.00 | 0.00 | 34 | 1017.0 |
| 20260506212735 | 60 | 248 | 5.0 | 9.0 | 0.00 | 0.00 | 0.00 | 32 | 1017.3 |
| 20260506211724 | 61 | 246 | 3.0 | 8.0 | 0.00 | 0.00 | 0.00 | 32 | 1017.3 |
| 20260506210732 | 61 | 286 | 4.0 | 7.0 | 0.00 | 0.00 | 0.00 | 34 | 1017.4 |
| 20260506205726 | 59 | 243 | 4.0 | 7.0 | 0.00 | 0.00 | 0.00 | 36 | 1017.4 |
| 20260506204733 | 59 | 184 | 4.0 | 9.0 | 0.00 | 0.00 | 0.00 | 33 | 1017.5 |
| 20260506203724 | 59 | 197 | 3.0 | 9.0 | 0.00 | 0.00 | 0.00 | 35 | 1017.5 |
| 20260506202728 | 58 | 264 | 1.0 | 9.0 | 0.00 | 0.00 | 0.00 | 32 | 1017.5 |
| 20260506201736 | 58 | 234 | 4.0 | 10.0 | 0.00 | 0.00 | 0.00 | 33 | 1017.5 |
| 20260506200725 | 59 | 257 | 4.0 | 8.0 | 0.00 | 0.00 | 0.00 | 33 | 1017.7 |
| 20260506195802 | 59 | 108 | 3.0 | 4.0 | 0.00 | 0.00 | 0.00 | 33 | 1017.6 |
| 20260506194750 | 59 | 244 | 6.0 | 8.0 | 0.00 | 0.00 | 0.00 | 33 | 1017.7 |
| 20260506193738 | 59 | 275 | 2.0 | 11.0 | 0.00 | 0.00 | 0.00 | 34 | 1017.8 |
| 20260506192726 | 58 | 61 | 4.0 | 10.0 | 0.00 | 0.00 | 0.00 | 34 | 1017.9 |
| 20260506191739 | 57 | 46 | 4.0 | 10.0 | 0.00 | 0.00 | 0.00 | 34 | 1017.9 |
| 20260506190727 | 57 | 98 | 3.0 | 7.0 | 0.00 | 0.00 | 0.00 | 35 | 1018.0 |
| 20260506185740 | 55 | 346 | 3.0 | 6.0 | 0.00 | 0.00 | 0.00 | 38 | 1018.1 |
| 20260506184730 | 55 | 228 | 4.0 | 9.0 | 0.00 | 0.00 | 0.00 | 35 | 1018.3 |
| 20260506183740 | 54 | 73 | 3.0 | 9.0 | 0.00 | 0.00 | 0.00 | 34 | 1018.4 |
| 20260506182746 | 54 | 84 | 5.0 | 12.0 | 0.00 | 0.00 | 0.00 | 33 | 1018.5 |
| 20260506181731 | 54 | 5 | 3.0 | 9.0 | 0.00 | 0.00 | 0.00 | 35 | 1018.5 |
| 20260506180738 | 53 | 24 | 2.0 | 5.0 | 0.00 | 0.00 | 0.00 | 39 | 1018.7 |
| 20260506175751 | 53 | 59 | 3.0 | 8.0 | 0.00 | 0.05 | 0.00 | 38 | 1018.7 |
| 20260506174735 | 52 | 308 | 2.0 | 6.0 | 0.00 | 0.05 | 0.00 | 39 | 1018.8 |
| 20260506173747 | 51 | 267 | 1.0 | 8.0 | 0.00 | 0.05 | 0.00 | 41 | 1018.8 |
| 20260506172735 | 51 | 248 | 2.0 | 4.0 | 0.00 | 0.05 | 0.00 | 40 | 1018.8 |
| 20260506171723 | 50 | 281 | 3.0 | 7.0 | 0.00 | 0.05 | 0.00 | 44 | 1018.8 |
| 20260506170751 | 49 | 221 | 3.0 | 8.0 | 0.00 | 0.05 | 0.00 | 45 | 1018.7 |
| 20260506165723 | 49 | 300 | 1.0 | 6.0 | 0.00 | 0.07 | 0.00 | 44 | 1018.7 |
| 20260506164734 | 49 | 213 | 3.0 | 6.0 | 0.00 | 0.07 | 0.00 | 45 | 1018.6 |
| 20260506163801 | 49 | 250 | 3.0 | 6.0 | 0.00 | 0.07 | 0.00 | 46 | 1018.6 |
| 20260506162729 | 48 | 136 | 3.0 | 5.0 | 0.00 | 0.07 | 0.00 | 45 | 1018.5 |
| 20260506161736 | 48 | 159 | 1.0 | 5.0 | 0.00 | 0.07 | 0.00 | 47 | 1018.4 |
| 20260506160729 | 47 | 130 | 2.0 | 5.0 | 0.00 | 0.07 | 0.00 | 49 | 1018.5 |
| 20260506155741 | 46 | 192 | 2.0 | 7.0 | 0.00 | 0.08 | 0.00 | 49 | 1018.3 |
| 20260506154727 | 46 | 176 | 3.0 | 8.0 | 0.00 | 0.08 | 0.00 | 50 | 1018.3 |
| 20260506153731 | 46 | 172 | 2.0 | 5.0 | 0.00 | 0.08 | 0.00 | 51 | 1018.1 |
| 20260506152723 | 45 | 184 | 4.0 | 7.0 | 0.00 | 0.08 | 0.00 | 49 | 1018.0 |
| 20260506151731 | 45 | 144 | 2.0 | 4.0 | 0.00 | 0.08 | 0.00 | 48 | 1018.0 |
| 20260506150739 | 44 | 145 | 3.0 | 5.0 | 0.00 | 0.08 | 0.00 | 52 | 1017.9 |
| 20260506145730 | 44 | 157 | 5.0 | 7.0 | 0.00 | 0.20 | 0.00 | 53 | 1017.7 |
| 20260506144723 | 43 | 117 | 1.0 | 6.0 | 0.00 | 0.20 | 0.00 | 56 | 1017.7 |
| 20260506143750 | 42 | 132 | 3.0 | 7.0 | 0.00 | 0.20 | 0.00 | 55 | 1017.7 |
| 20260506142736 | 41 | 144 | 4.0 | 7.0 | 0.00 | 0.20 | 0.00 | 56 | 1017.7 |
| 20260506141725 | 41 | 115 | 3.0 | 6.0 | 0.00 | 0.20 | 0.00 | 57 | 1017.5 |
| 20260506140734 | 41 | 9 | 2.0 | 3.0 | 0.00 | 0.20 | 0.00 | 57 | 1017.4 |
| 20260506135728 | 40 | 5 | 1.0 | 3.0 | 0.00 | 0.26 | 0.00 | 58 | 1017.2 |
| 20260506134735 | 39 | 360 | 1.0 | 3.0 | 0.00 | 0.26 | 0.00 | 60 | 1016.9 |
| 20260506133723 | 39 | 360 | 1.0 | 4.0 | 0.00 | 0.26 | 0.00 | 60 | 1016.9 |
| 20260506132736 | 38 | 304 | 2.0 | 5.0 | 0.00 | 0.26 | 0.00 | 59 | 1016.7 |
| 20260506131724 | 38 | 298 | 1.0 | 4.0 | 0.00 | 0.26 | 0.00 | 57 | 1016.4 |
| 20260506130731 | 38 | 299 | 3.0 | 5.0 | 0.00 | 0.26 | 0.00 | 55 | 1016.2 |
| 20260506125726 | 39 | 360 | 1.0 | 5.0 | 0.00 | 0.36 | 0.00 | 51 | 1016.0 |
| 20260506124756 | 40 | 355 | 3.0 | 6.0 | 0.00 | 0.36 | 0.00 | 47 | 1015.9 |
| 20260506123742 | 40 | 339 | 2.0 | 11.0 | 0.00 | 0.36 | 0.00 | 47 | 1015.8 |
| 20260506122729 | 40 | 16 | 6.0 | 11.0 | 0.00 | 0.36 | 0.00 | 46 | 1015.6 |
| 20260506121737 | 40 | 16 | 5.0 | 15.0 | 0.00 | 0.36 | 0.00 | 47 | 1015.4 |
| 20260506120725 | 40 | 13 | 5.0 | 12.0 | 0.00 | 0.36 | 0.00 | 46 | 1015.2 |
| 20260506115741 | 40 | 360 | 3.0 | 6.0 | 0.00 | 0.47 | 0.00 | 50 | 1015.2 |
| 20260506114749 | 39 | 5 | 3.0 | 5.0 | 0.00 | 0.47 | 0.00 | 55 | 1015.2 |
| 20260506113735 | 40 | 348 | 0.0 | 4.0 | 0.00 | 0.47 | 0.00 | 57 | 1015.1 |
| 20260506112723 | 40 | 346 | 2.0 | 3.0 | 0.00 | 0.47 | 0.00 | 57 | 1014.9 |
| 20260506111733 | 40 | 13 | 1.0 | 5.0 | 0.00 | 0.47 | 0.00 | 56 | 1014.8 |
| 20260506110741 | 41 | 23 | 2.0 | 4.0 | 0.00 | 0.47 | 0.00 | 56 | 1014.5 |
| 20260506105735 | 41 | 11 | 2.0 | 4.0 | 0.00 | 0.47 | 0.00 | 54 | 1014.5 |
| 20260506104744 | 42 | 9 | 1.0 | 6.0 | 0.00 | 0.47 | 0.00 | 52 | 1014.3 |
| 20260506103734 | 42 | 5 | 2.0 | 8.0 | 0.00 | 0.47 | 0.00 | 52 | 1014.3 |
| 20260506102742 | 42 | 10 | 4.0 | 8.0 | 0.00 | 0.47 | 0.00 | 55 | 1014.0 |
| 20260506101731 | 42 | 12 | 2.0 | 5.0 | 0.00 | 0.47 | 0.00 | 59 | 1014.0 |
| 20260506100739 | 43 | 5 | 2.0 | 4.0 | 0.00 | 0.47 | 0.00 | 59 | 1014.0 |
| 20260506095738 | 44 | 5 | 1.0 | 3.0 | 0.00 | 0.47 | 0.00 | 59 | 1014.0 |
| 20260506094724 | 44 | 5 | 1.0 | 2.0 | 0.00 | 0.47 | 0.00 | 58 | 1013.9 |
| 20260506093733 | 45 | 5 | 1.0 | 2.0 | 0.00 | 0.47 | 0.00 | 57 | 1013.8 |
| 20260506092722 | 46 | 5 | 1.0 | 3.0 | 0.00 | 0.47 | 0.00 | 55 | 1013.9 |
| 20260506091734 | 47 | 5 | 1.0 | 5.0 | 0.00 | 0.47 | 0.00 | 52 | 1013.8 |
| 20260506090722 | 48 | 355 | 3.0 | 9.0 | 0.00 | 0.47 | 0.00 | 49 | 1013.8 |
| 20260506085736 | 48 | 324 | 4.0 | 8.0 | 0.00 | 0.47 | 0.00 | 51 | 1013.8 |
| 20260506084722 | 49 | 335 | 4.0 | 10.0 | 0.00 | 0.47 | 0.00 | 50 | 1013.7 |
| 20260506083733 | 50 | 340 | 5.0 | 10.0 | 0.00 | 0.47 | 0.00 | 47 | 1013.5 |
| 20260506082739 | 50 | 11 | 5.0 | 13.0 | 0.00 | 0.47 | 0.00 | 41 | 1013.3 |
| 20260506081725 | 51 | 5 | 4.0 | 13.0 | 0.00 | 0.47 | 0.00 | 42 | 1013.2 |
| 20260506080733 | 51 | 29 | 6.0 | 19.0 | 0.00 | 0.47 | 0.00 | 43 | 1013.2 |
| 20260506072726 | 50 | 12 | 5.0 | 21.0 | 0.00 | 0.47 | 0.00 | 53 | 1012.2 |
| 20260506071737 | 51 | 61 | 12.0 | 25.0 | 0.00 | 0.47 | 0.00 | 50 | 1012.0 |
| 20260506070744 | 52 | 57 | 16.0 | 25.0 | 0.00 | 0.47 | 0.00 | 50 | 1012.0 |
| 20260506061741 | 52 | 355 | 6.0 | 13.0 | 0.00 | 0.47 | 0.00 | 48 | 1010.1 |
| 20260506060723 | 53 | 349 | 7.0 | 11.0 | 0.00 | 0.47 | 0.00 | 50 | 1009.8 |
| 20260506050727 | 53 | 17 | 3.0 | 7.0 | 0.00 | 0.47 | 0.47 | 71 | 1009.0 |
| 20260506044731 | 54 | 25 | 0.0 | 3.0 | 0.00 | 0.47 | 0.47 | 65 | 1008.9 |
| 20260506043736 | 55 | 14 | 0.0 | 5.0 | 0.00 | 0.47 | 0.47 | 63 | 1008.7 |
| 20260506042723 | 55 | 9 | 2.0 | 4.0 | 0.00 | 0.47 | 0.47 | 61 | 1008.4 |
| 20260506041730 | 55 | 63 | 5.0 | 9.0 | 0.00 | 0.47 | 0.47 | 61 | 1008.3 |
| 20260506040741 | 55 | 80 | 4.0 | 6.0 | 0.00 | 0.47 | 0.47 | 67 | 1008.2 |
| 20260506035733 | 54 | 13 | 2.0 | 5.0 | 0.00 | 0.47 | 0.47 | 70 | 1008.2 |
| 20260506034739 | 54 | 157 | 2.0 | 7.0 | 0.00 | 0.47 | 0.47 | 71 | 1007.9 |
| 20260506033726 | 55 | 128 | 4.0 | 8.0 | 0.00 | 0.47 | 0.47 | 70 | 1007.9 |
| 20260506032738 | 55 | 123 | 5.0 | 8.0 | 0.00 | 0.47 | 0.47 | 70 | 1007.8 |
| 20260506031725 | 55 | 161 | 4.0 | 6.0 | 0.00 | 0.47 | 0.47 | 69 | 1007.7 |
| 20260506030730 | 56 | 180 | 3.0 | 4.0 | 0.00 | 0.47 | 0.47 | 70 | 1007.6 |
| 20260506025723 | 56 | 183 | 2.0 | 8.0 | 0.00 | 0.47 | 0.47 | 70 | 1007.6 |
| 20260506024749 | 56 | 153 | 3.0 | 5.0 | 0.00 | 0.47 | 0.47 | 70 | 1007.5 |
| 20260506023736 | 57 | 153 | 2.0 | 5.0 | 0.00 | 0.47 | 0.47 | 70 | 1007.2 |
| 20260506022723 | 57 | 161 | 1.0 | 3.0 | 0.00 | 0.47 | 0.47 | 70 | 1007.1 |
| 20260506021730 | 58 | 161 | 3.0 | 5.0 | 0.00 | 0.47 | 0.47 | 70 | 1006.9 |
| 20260506020737 | 58 | 240 | 2.0 | 4.0 | 0.00 | 0.47 | 0.47 | 67 | 1006.8 |
| 20260506015735 | 59 | 252 | 2.0 | 5.0 | 0.00 | 0.47 | 0.47 | 66 | 1006.7 |
| 20260506014740 | 59 | 255 | 3.0 | 9.0 | 0.00 | 0.47 | 0.47 | 64 | 1006.5 |
| 20260506013727 | 60 | 224 | 4.0 | 8.0 | 0.00 | 0.47 | 0.47 | 61 | 1006.4 |
| 20260506012735 | 61 | 242 | 4.0 | 10.0 | 0.00 | 0.47 | 0.47 | 60 | 1006.4 |
| 20260506011728 | 61 | 208 | 3.0 | 6.0 | 0.00 | 0.47 | 0.47 | 59 | 1006.5 |
| 20260506010735 | 61 | 219 | 3.0 | 6.0 | 0.00 | 0.47 | 0.47 | 60 | 1006.4 |
| 20260506005730 | 61 | 227 | 4.0 | 7.0 | 0.00 | 0.47 | 0.47 | 58 | 1006.3 |
| 20260506004737 | 61 | 240 | 4.0 | 9.0 | 0.00 | 0.47 | 0.47 | 59 | 1006.3 |
| 20260506003748 | 61 | 165 | 5.0 | 9.0 | 0.00 | 0.47 | 0.47 | 58 | 1006.2 |
| 20260506002735 | 61 | 199 | 5.0 | 7.0 | 0.00 | 0.47 | 0.47 | 58 | 1006.2 |
| 20260506001722 | 61 | 211 | 5.0 | 8.0 | 0.00 | 0.47 | 0.47 | 57 | 1006.2 |
| 20260506000722 | 61 | 232 | 5.0 | 9.0 | 0.00 | 0.47 | 0.47 | 56 | 1006.3 |
| 20260505235721 | 61 | 244 | 7.0 | 10.0 | 0.00 | 0.47 | 0.47 | 57 | 1006.2 |
| 20260505234727 | 61 | 195 | 4.0 | 9.0 | 0.00 | 0.47 | 0.47 | 56 | 1006.3 |
| 20260505233734 | 61 | 205 | 6.0 | 16.0 | 0.00 | 0.47 | 0.47 | 56 | 1006.3 |
| 20260505232722 | 61 | 185 | 4.0 | 9.0 | 0.00 | 0.47 | 0.47 | 55 | 1006.3 |